DECAYED
Showing default

INTUITION-1, 58565 (Decayed)

Orbit data source: Space-Track

INTUITION-1, 58565 was a payload satellite owned by KP Labs (PL) in LEO that was launched on Sat, 11 Nov 2023 UTC via an FALCON 9 launch vehicle from the Air Force Western Test Range (AFWTR). Payload-class satellites include a variety of spacecraft equipped with specific instruments for various scientific and technological missions. These include communications satellites like Starlink; space stations such as the ISS; scientific satellites like the Hubble; Earth observation satellites from companies like Planet Labs, Umbra, and HawkEye 360; GPS; miniature CubeSats for education and research; and military/defense satellites.

Not visible in the next 10 days
Identifier
58565, 2023-174CW
Orbit
Decayed
Country
Flag of PLPL / POL
Related business
Manufacturer
AAC ClydeSpace
Mission
Decayed Commercial Imaging
Bus & Motor
CUBESAT 6U, Unknown motor
Mass
10 kg wet, ~10 kg dry
Launch date (UTC)
2023-11-11 (3 years ago)
Launch vehicle
FALCON 9
Launch site
Air Force Western Test Range (AFWTR)
Object type
Payload
Rocket body
Debris
Shape & HBR
Box + 2 Pan, 0.2 m
Radar Cross Section
0.092 m², Medium (>0.1 m² and < 1m²)

Expand to show TLE details & history
Last TLE update: 6 months ago

TLE from 6 months ago
0 INTUITION-1
1 58565U 23174CW  26081.11884427  .03657992  24196-5  16160-2 0  9992
2 58565  97.3568 178.8966 0009303 271.9594  88.0631 16.22298512132871
Epoch: 2026-03-22T02:51Z
TLE epoch observation values (Epoch: 2026-03-22T02:51:08.144Z)
Latitude
-0.00002°
Longitude
-43.51712°
Altitude
216.346 km
Speed
7.777 km/s
True Right ascension
11h 55m 35s
True Declination
0° 00' 00"
Sunlit
Object was in full shadow at epoch
Visualization orbit readout
Latitude
Unknown
Longitude
Unknown
Altitude
Unknown
Speed
Unknown
Apparent Right ascension
Unknown
Apparent Declination
Unknown
Sunlit
N/A
Visualization observer readout
Local Sidereal Time
12:32:06
Azimuth
Unknown
Elevation
Unknown
Doppler factor
Unknown
Orbital elements
Apogee altitude
216.276 km
Perigee altitude
204.018 km
Semi-major axis
6,588.284 km
Eccentricity
0.00093
Inclination
97.3568°
RAAN
178.8966°
Arg. of periapsis
271.9594°
True anomaly
88.16965°
Mean anomaly
88.0631°
Eccentric anomaly
88.11637°
Mean motion
4.05868 °/min
Orbital period
88.7 mins
BSTAR
0.001616
Loading maneuver chart data...
Computing Atmospheric mass density...
Loading historical data...
Loading historical data...
Loading historical data...
Loading historical data...
Loading historical data...
Loading historical data...
Loading historical data...

Documentation

Showing up to 5 results
|